User: anonymous   Login
Location: Lugrin
(46.4033°N, 6.6674°E)
Time: 16:55:25
(UTC+00:00)
Language:

SPOT 3 Rocket - Orbit

View from above orbital plane
View from above orbital plane
View from above satellite
View from above satellite

Ground track
Ground track

The orbit data is extracted from the following two-line orbital elements,

1 22830U 93061H   20333.77486500  .00000008  00000-0  20157-4 0  9999
2 22830  98.7445  24.3209 0010722 195.2742 164.8118 14.31460845418587
Epoch (UTC): 28 November 2020 18:35:48
Eccentricity: 0.0010722
inclination: 98.7445°
perigee height: 779 km
apogee height: 794 km
right ascension of ascending node: 24.3209°
argument of perigee: 195.2742°
revolutions per day: 14.31460845
mean anomaly at epoch: 164.8118°
orbit number at epoch: 41858

The dashed part of the orbit path shows where the satellite is in the earth's shadow,  

DLR